#timestamp,LO_Frequency,Hit,StdDev 
1574758815.7,286047000.8,N
1574758835.6,286047000.6,N
1574758855.4,286046998.2,N
1574758875.2,286047000.7,N
1574758895.1,286046998.1,N
1574758896.0,286046998.1,N
1574758915.8,286046998.3,N
1574758935.7,286047000.5,N
1574758955.5,286046999.9,N
1574758975.3,286047004.4,Y
1574758995.2,286047002.5,P
1574759015.0,286047002.3,N
1574759015.9,286047002.3,N
1574759035.8,286047001.3,N
1574759055.6,286047004.0,Y
1574759075.4,286047002.7,P
1574759095.3,286046999.8,N
1574759115.1,286047000.2,N
1574759135.8,286047002.7,N
1574759155.7,286047002.8,N
1574759175.5,286047000.6,N
1574759195.4,286046998.2,N
1574759215.2,286046998.4,N
1574759235.0,286046998.5,N
1574759235.9,286046998.5,N
1574759255.8,286047000.7,N
1574759275.6,286047000.0,N
1574759295.4,286047002.4,N
1574759315.3,286047000.4,N
1574759335.1,286047002.7,N
1574759355.9,286046999.7,N
1574759375.7,286047000.5,N
1574759395.5,286047002.4,N
1574759415.4,286047002.3,N
1574759435.2,286047000.1,N
1574759455.0,286047001.7,N
1574759455.9,286047001.7,N
1574759475.8,286047004.3,N
1574759495.6,286047002.0,N
1574759515.5,286047002.4,N
1574759535.3,286047002.4,N
1574759555.1,286047002.4,N
1574759575.9,286047003.1,N
1574759595.7,286047001.7,N
1574759615.5,286047002.5,N
1574759635.4,286047001.3,N
1574759655.2,286047004.2,N
1574759675.1,286047001.3,N
1574759676.0,286047001.3,N
1574759695.8,286047001.3,N
1574759715.6,286047003.5,N
1574759735.5,286047003.2,N
1574759755.3,286047003.5,N
1574759775.1,286047003.2,N
1574759795.9,286047003.5,N
1574759815.7,286047004.1,Y
1574759835.6,286047002.6,P
1574759855.4,286047002.6,P
1574759875.2,286047001.7,P
1574759895.1,286047001.9,Y
1574759896.0,286047001.9,P
1574759915.8,286047002.3,P
1574759935.7,286047000.2,N
1574759955.5,286047002.7,Y
1574759975.3,286047000.4,P
1574759995.2,286047002.7,P
1574760015.0,286046999.7,N
1574760015.9,286046999.7,N
1574760035.7,286046999.8,N
1574760055.6,286047002.3,N
1574760075.4,286047002.7,N
1574760095.3,286047002.6,N
1574760115.1,286047004.0,Y
1574760135.8,286046999.9,P
1574760155.7,286047002.5,P
1574760175.5,286046999.9,N
1574760195.4,286047001.1,N
1574760215.2,286046999.0,N
1574760235.0,286046999.0,N
1574760235.9,286046999.0,N
1574760255.8,286046998.5,N
1574760275.6,286047000.7,N
1574760295.4,286047000.7,N
1574760315.3,286046999.0,N
1574760335.1,286046999.1,N
1574760355.9,286046997.5,N
1574760375.7,286046996.6,N
1574760395.5,286046997.7,N
1574760415.4,286046998.0,N
1574760435.2,286046996.7,N
1574760455.1,286046999.5,N
1574760456.0,286046999.5,N
1574760475.8,286046997.0,N
1574760495.6,286046997.5,N
1574760515.5,286046997.1,N
1574760535.3,286046996.8,N
1574760555.1,286046997.6,N
1574760575.9,286046997.6,N
1574760595.7,286046998.0,N
1574760615.6,286046995.0,Y
1574760635.4,286046999.0,P
1574760655.2,286046999.0,P
1574760675.1,286046998.4,P
1574760676.0,286046998.4,Y
1574760695.8,286046999.7,P
1574760715.7,286047000.1,N
1574760735.5,286047002.6,P
1574760755.3,286047001.9,N
1574760775.2,286047002.5,N
1574760795.0,286047002.2,N
1574760795.9,286047002.2,N
1574760815.7,286047002.0,N
1574760835.6,286047001.9,N
1574760855.4,286047002.2,N
1574760875.3,286047002.1,N
1574760895.1,286047001.4,N
1574760896.0,286047001.4,N
1574760915.8,286047002.1,N
1574760935.7,286047002.1,N
1574760955.5,286047000.2,N
1574760975.4,286046999.7,N
1574760995.2,286047001.4,N
1574761015.0,286047005.9,Y
1574761015.9,286047005.9,P
1574761035.8,286047002.3,N
1574761055.6,286047002.2,N
1574761075.4,286047002.1,N
1574761095.3,286047002.4,N
1574761115.1,286047001.6,N
1574761135.9,286047002.2,N
1574761155.7,286047002.6,N
1574761175.5,286047002.4,N
1574761195.4,286047002.7,N
1574761215.2,286047002.0,N
1574761235.0,286047002.9,N
1574761235.9,286047002.9,N
1574761255.8,286047003.0,N
1574761275.6,286047004.3,Y
1574761295.5,286047001.2,P
1574761315.3,286047001.2,N
1574761335.1,286046998.5,N
1574761355.9,286046998.6,N
1574761375.7,286047000.4,N
1574761395.6,286047000.1,N
1574761415.4,286047001.7,N
1574761435.2,286047001.7,N
1574761455.1,286047001.3,N
1574761456.0,286047001.3,N
1574761505.8,286047001.3,E
1574761515.8,286047001.5,N
1574761535.6,286047001.6,P
1574761555.4,286047002.8,P
1574761575.3,286047002.4,Y
1574761595.1,286046999.0,P
1574761615.8,286046999.5,N
1574761635.7,286046998.8,N
1574761655.5,286046999.1,N
1574761675.4,286046996.6,N
1574761695.2,286046998.9,N
1574761715.0,286046998.4,N
1574761715.9,286046998.4,N
1574761735.8,286046998.1,N
1574761755.6,286047002.6,N
1574761775.5,286047001.0,N
1574761795.3,286047001.1,N
1574761815.1,286046998.7,N
1574761835.9,286046999.0,N
1574761855.7,286046999.6,N
1574761875.5,286046999.1,N
1574761895.4,286046999.6,N
1574761915.2,286046997.1,N
1574761935.1,286046999.6,N
1574761936.0,286046999.6,N
1574761955.8,286046999.4,N
1574761975.6,286046998.1,N
1574761995.5,286046996.6,N
1574762015.3,286046998.0,N
1574762035.1,286046996.9,N
1574762055.9,286046999.6,N
1574762075.7,286046997.6,N
1574762095.5,286046996.7,N
1574762115.4,286047001.2,N
1574762135.2,286047000.8,N
1574762155.1,286046998.7,N
1574762156.0,286046998.7,N
1574762175.8,286047000.9,N
1574762195.6,286047002.8,N
1574762215.5,286047002.4,N
1574762235.3,286047002.4,N
1574762255.1,286046999.7,N
1574762275.9,286047002.8,N
1574762295.7,286047002.3,N
1574762315.6,286047002.1,N
1574762335.4,286047001.6,N
1574762355.2,286047002.1,N
1574762375.1,286047001.5,N
1574762406.0,286047003.8,E
